Tracking 19638 objects as of 20-May-2019
HD Live streaming from Space Station
objects crossing your sky now

HOT BIRD 1

Track HOT BIRD 1 now!
HOT BIRD 1 is classified as:


NORAD ID: 23537
Int'l Code: 1995-016B
Perigee: 36,037.1 km
Apogee: 36,088.7 km
Inclination: 9.9 °
Period: 1,449.9 minutes
Semi major axis: 42433 km
RCS: 7.9621 m2 (large)
Launch date: March 28, 1995
Source: European Telecommunications Satellite Organization (EUTE)
Launch site: FRENCH GUIANA (FRGUI)

Cable programming; direct-to-home broadcasting; 16 channels, Western Europe
aabbcc
Your satellite tracking list
Your tracking list is empty




NASA's NSSDC Master Catalog

Two Line Element Set (TLE):
1 23537U 95016B   19140.01990878 -.00000244  00000-0  00000+0 0  9998
2 23537   9.9267  39.7562 0006071 359.6813 190.5935  0.99319303 88045
Source of the keplerian elements: AFSPC